�������r�C�����j�^�v���󋵏��
Date,Time,5�C6���@���p�r�C��,����,����(m/s)
2021/06/17,00:00,3.8,�k�k��,4.7
2021/06/17,00:10,3.9,�k�k��,4.8
2021/06/17,00:20,3.9,�k,4.7
2021/06/17,00:30,3.8,�k�k��,5.3
2021/06/17,00:40,3.8,�k�k��,5.3
2021/06/17,00:50,3.8,�k�k��,4.8
2021/06/17,01:00,3.7,�k�k��,4.4
2021/06/17,01:10,4.0,�k�k��,4.2
2021/06/17,01:20,4.0,�k�k��,4.3
2021/06/17,01:30,3.8,�k,4.6
2021/06/17,01:40,3.9,�k�k��,3.7
2021/06/17,01:50,3.9,�k,3.3
2021/06/17,02:00,3.9,�k,3.5
2021/06/17,02:10,4.0,�k�k��,3.3
2021/06/17,02:20,4.1,�k�k��,2.6
2021/06/17,02:30,3.8,�k,2.3
2021/06/17,02:40,3.9,�k�k��,2.3
2021/06/17,02:50,3.8,�k��,3.2
2021/06/17,03:00,3.8,���k��,3.3
2021/06/17,03:10,3.8,���k��,3.8
2021/06/17,03:20,3.8,�k�k��,3.6
2021/06/17,03:30,3.9,�k��,3.1
2021/06/17,03:40,4.1,�k�k��,2.9
2021/06/17,03:50,3.9,�k�k��,3.5
2021/06/17,04:00,4.0,�k��,3.1
2021/06/17,04:10,3.9,�k�k��,3.3
2021/06/17,04:20,3.9,�k��,3.7
2021/06/17,04:30,4.1,�k��,4.4
2021/06/17,04:40,3.8,�k��,3.2
2021/06/17,04:50,3.9,�k��,4.3
2021/06/17,05:00,4.0,�k��,4.3
2021/06/17,05:10,3.9,�k��,4.0
2021/06/17,05:20,4.0,�k��,4.9
2021/06/17,05:30,3.9,�k��,5.5
2021/06/17,05:40,4.0,�k��,5.9
2021/06/17,05:50,4.0,�k��,5.6
2021/06/17,06:00,3.7,�k��,5.7
2021/06/17,06:10,3.9,�k��,3.9
2021/06/17,06:20,3.8,�k��,4.8
2021/06/17,06:30,3.8,�k��,4.9
2021/06/17,06:40,3.9,�k�k��,5.2
2021/06/17,06:50,3.8,�k�k��,5.0
2021/06/17,07:00,3.9,�k�k��,5.3
2021/06/17,07:10,3.9,�k�k��,4.9
2021/06/17,07:20,3.9,�k�k��,5.2
2021/06/17,07:30,3.8,�k�k��,5.4
2021/06/17,07:40,4.0,�k�k��,6.0
2021/06/17,07:50,3.8,�k�k��,6.3
2021/06/17,08:00,3.8,�k�k��,5.8
2021/06/17,08:10,4.0,�k�k��,6.1
2021/06/17,08:20,3.8,�k�k��,6.9
2021/06/17,08:30,3.9,�k�k��,6.7
2021/06/17,08:40,3.6,�k�k��,6.6
2021/06/17,08:50,3.6,�k�k��,6.8
2021/06/17,09:00,3.9,�k�k��,6.2
2021/06/17,09:10,4.0,�k�k��,6.3
2021/06/17,09:20,3.8,�k�k��,6.6
2021/06/17,09:30,3.9,�k�k��,6.9
2021/06/17,09:40,3.8,�k�k��,7.3
2021/06/17,09:50,4.0,�k�k��,6.9
2021/06/17,10:00,3.9,�k�k��,6.2
2021/06/17,10:10,3.8,�k�k��,7.0
2021/06/17,10:20,3.8,�k�k��,7.2
2021/06/17,10:30,3.9,�k�k��,7.4
2021/06/17,10:40,3.9,�k�k��,7.3
2021/06/17,10:50,3.9,�k�k��,7.9
2021/06/17,11:00,3.9,�k�k��,7.6
2021/06/17,11:10,4.0,�k�k��,8.1
2021/06/17,11:20,4.0,�k�k��,8.3
2021/06/17,11:30,3.9,�k�k��,7.8
2021/06/17,11:40,4.1,�k�k��,8.0
2021/06/17,11:50,3.8,�k�k��,8.7
2021/06/17,12:00,4.0,�k�k��,8.6
2021/06/17,12:10,3.9,�k�k��,8.5
2021/06/17,12:20,3.8,�k�k��,8.2
2021/06/17,12:30,4.0,�k�k��,7.8
2021/06/17,12:40,3.8,�k�k��,7.4
2021/06/17,12:50,3.9,�k�k��,7.8
2021/06/17,13:00,4.1,�k�k��,7.8
2021/06/17,13:10,3.8,�k�k��,7.2
2021/06/17,13:20,3.8,�k�k��,6.9
2021/06/17,13:30,3.9,�k�k��,6.1
2021/06/17,13:40,3.9,�k�k��,6.6
2021/06/17,13:50,4.0,�k�k��,6.6
2021/06/17,14:00,3.9,�k�k��,6.6
2021/06/17,14:10,3.9,�k�k��,6.6
2021/06/17,14:20,3.9,�k�k��,6.5
2021/06/17,14:30,3.7,�k�k��,6.3
2021/06/17,14:40,3.8,�k�k��,6.5
2021/06/17,14:50,4.0,�k�k��,7.1
2021/06/17,15:00,3.9,�k�k��,6.6
2021/06/17,15:10,4.0,�k�k��,6.5
2021/06/17,15:20,3.8,�k�k��,6.6
2021/06/17,15:30,3.8,�k�k��,6.3
2021/06/17,15:40,3.9,�k�k��,6.5
2021/06/17,15:50,3.7,�k�k��,6.5
2021/06/17,16:00,4.0,�k�k��,6.5
2021/06/17,16:10,4.0,�k�k��,6.3
2021/06/17,16:20,3.9,�k�k��,6.0
2021/06/17,16:30,3.8,�k�k��,6.0
2021/06/17,16:40,4.0,�k�k��,6.0
2021/06/17,16:50,3.9,�k�k��,6.1
2021/06/17,17:00,4.0,�k�k��,6.4
2021/06/17,17:10,4.0,�k�k��,6.0
2021/06/17,17:20,3.8,�k�k��,5.6
2021/06/17,17:30,4.0,�k�k��,6.0
2021/06/17,17:40,4.0,�k�k��,5.4
2021/06/17,17:50,4.1,�k�k��,5.5
2021/06/17,18:00,3.9,�k�k��,5.4
2021/06/17,18:10,4.0,�k�k��,4.9
2021/06/17,18:20,4.0,�k�k��,4.6
2021/06/17,18:30,3.8,�k�k��,4.4
2021/06/17,18:40,3.7,�k�k��,4.8
2021/06/17,18:50,3.9,�k�k��,4.5
2021/06/17,19:00,4.0,�k�k��,4.4
2021/06/17,19:10,3.9,�k�k��,4.9
2021/06/17,19:20,4.0,�k,3.7
2021/06/17,19:30,3.6,�k,4.1
2021/06/17,19:40,3.8,�k,4.2
2021/06/17,19:50,3.8,�k,3.3
2021/06/17,20:00,3.9,�k�k��,3.3
2021/06/17,20:10,3.9,�k�k��,3.9
2021/06/17,20:20,3.8,�k�k��,4.2
2021/06/17,20:30,4.0,�k�k��,4.9
2021/06/17,20:40,4.0,�k,4.5
2021/06/17,20:50,4.1,�k,4.3
2021/06/17,21:00,3.9,�k,4.8
2021/06/17,21:10,3.7,�k,5.0
2021/06/17,21:20,3.8,�k,4.3
2021/06/17,21:30,3.9,�k,4.9
2021/06/17,21:40,4.0,�k,4.8
2021/06/17,21:50,4.0,�k,4.3
2021/06/17,22:00,3.9,�k,3.4
2021/06/17,22:10,3.9,�k,3.3
2021/06/17,22:20,3.9,�k�k��,2.3
2021/06/17,22:30,3.9,�k�k��,3.4
2021/06/17,22:40,3.7,�k,3.6
2021/06/17,22:50,3.8,�k�k��,4.1
2021/06/17,23:00,4.0,�k�k��,3.9
2021/06/17,23:10,3.9,�k,3.9
2021/06/17,23:20,4.0,�k,3.6
2021/06/17,23:30,4.0,�k,3.1
2021/06/17,23:40,3.8,�k,2.6
2021/06/17,23:50,4.0,�k,2.6
